Time,TemperatureF,DewpointF,PressureIn,WindDirection,WindDirectionDegrees,WindSpeedMPH,WindSpeedGustMPH,Humidity,HourlyPrecipIn,Conditions,Clouds,dailyrainin,SoftwareType,DateUTC
2013-05-21 00:04:00,66.0,63.0,29.69,SSW,196,6.0,9.0,90,0.04,,,0.04,meteohub,2013-05-21 05:04:00,
2013-05-21 00:09:00,66.0,63.3,29.69,SE,134,1.0,9.0,91,0.05,,,0.05,meteohub,2013-05-21 05:09:00,
2013-05-21 00:14:00,66.0,63.7,29.68,SSE,156,4.0,9.0,92,0.06,,,0.06,meteohub,2013-05-21 05:14:00,
2013-05-21 00:19:00,65.8,63.5,29.69,NE,50,1.0,9.0,92,0.06,,,0.06,meteohub,2013-05-21 05:19:00,
2013-05-21 00:25:00,65.8,63.5,29.69,WSW,240,4.0,9.0,92,0.07,,,0.07,meteohub,2013-05-21 05:25:00,
2013-05-21 00:30:00,65.8,63.5,29.69,SSE,149,0.0,9.0,92,0.07,,,0.08,meteohub,2013-05-21 05:30:00,
2013-05-21 00:35:00,65.8,63.7,29.69,SSW,198,1.0,9.0,93,0.07,,,0.08,meteohub,2013-05-21 05:35:00,
2013-05-21 00:40:00,65.7,63.5,29.69,SE,127,1.0,8.0,93,0.06,,,0.08,meteohub,2013-05-21 05:40:00,
2013-05-21 00:45:00,65.7,63.5,29.69,ESE,107,0.0,8.0,93,0.06,,,0.08,meteohub,2013-05-21 05:45:00,
2013-05-21 00:50:00,65.7,63.5,29.69,NNE,21,0.0,8.0,93,0.04,,,0.08,meteohub,2013-05-21 05:50:00,
2013-05-21 00:55:00,65.5,63.3,29.68,East,97,0.0,6.0,93,0.04,,,0.08,meteohub,2013-05-21 05:55:00,
2013-05-21 01:00:00,65.5,63.3,29.65,ESE,103,1.0,6.0,93,0.04,,,0.09,meteohub,2013-05-21 06:00:00,
2013-05-21 01:05:00,65.5,63.3,29.64,ESE,121,1.0,6.0,93,0.04,,,0.09,meteohub,2013-05-21 06:05:00,
2013-05-21 01:10:00,65.5,63.3,29.62,ESE,107,0.0,5.0,93,0.03,,,0.09,meteohub,2013-05-21 06:10:00,
2013-05-21 01:15:00,65.3,63.1,29.62,ESE,109,4.0,6.0,93,0.03,,,0.09,meteohub,2013-05-21 06:15:00,
2013-05-21 01:20:00,65.3,63.1,29.63,ESE,107,0.0,6.0,93,0.02,,,0.09,meteohub,2013-05-21 06:20:00,
2013-05-21 01:26:00,65.1,63.0,29.64,ESE,121,5.0,6.0,93,0.01,,,0.09,meteohub,2013-05-21 06:26:00,
2013-05-21 01:31:00,64.9,62.8,29.64,SSE,156,0.0,5.0,93,0.01,,,0.09,meteohub,2013-05-21 06:31:00,
2013-05-21 01:36:00,64.9,62.8,29.65,SE,141,0.0,5.0,93,0.01,,,0.09,meteohub,2013-05-21 06:36:00,
2013-05-21 01:41:00,64.9,62.8,29.65,SE,128,0.0,5.0,93,0.01,,,0.09,meteohub,2013-05-21 06:41:00,
2013-05-21 01:46:00,64.8,63.0,29.65,SSW,199,0.0,4.0,94,0.01,,,0.09,meteohub,2013-05-21 06:46:00,
2013-05-21 01:51:00,64.8,63.0,29.65,SSW,200,0.0,4.0,94,0.01,,,0.09,meteohub,2013-05-21 06:51:00,
2013-05-21 01:56:00,64.8,63.0,29.65,South,183,0.0,4.0,94,0.01,,,0.09,meteohub,2013-05-21 06:56:00,
2013-05-21 02:01:00,64.6,62.8,29.64,East,94,0.0,1.0,94,0.00,,,0.09,meteohub,2013-05-21 07:01:00,
2013-05-21 02:06:00,64.6,62.8,29.64,East,94,0.0,2.0,94,0.00,,,0.09,meteohub,2013-05-21 07:06:00,
2013-05-21 02:11:00,64.4,62.6,29.64,SE,136,0.0,2.0,94,0.00,,,0.09,meteohub,2013-05-21 07:11:00,
2013-05-21 02:16:00,64.4,62.6,29.64,SE,135,0.0,2.0,94,0.00,,,0.09,meteohub,2013-05-21 07:16:00,
2013-05-21 02:21:00,64.2,62.4,29.64,SE,126,0.0,1.0,94,0.00,,,0.09,meteohub,2013-05-21 07:21:00,
2013-05-21 02:26:00,64.2,62.4,29.64,ESE,109,0.0,2.0,94,0.00,,,0.09,meteohub,2013-05-21 07:26:00,
2013-05-21 02:31:00,64.2,62.4,29.64,ENE,67,0.0,3.0,94,0.00,,,0.09,meteohub,2013-05-21 07:31:00,
2013-05-21 02:36:00,64.2,62.4,29.64,East,86,0.0,3.0,94,0.00,,,0.09,meteohub,2013-05-21 07:36:00,
2013-05-21 02:41:00,64.2,62.4,29.64,East,84,0.0,3.0,94,0.00,,,0.09,meteohub,2013-05-21 07:41:00,
2013-05-21 02:46:00,64.2,62.4,29.64,ENE,78,0.0,4.0,94,0.00,,,0.09,meteohub,2013-05-21 07:46:00,
2013-05-21 02:51:00,64.2,62.4,29.63,SE,142,0.0,4.0,94,0.00,,,0.09,meteohub,2013-05-21 07:51:00,
2013-05-21 02:56:00,64.2,62.4,29.63,East,94,0.0,5.0,94,0.00,,,0.09,meteohub,2013-05-21 07:56:00,
2013-05-21 03:02:00,64.2,62.4,29.62,North,5,0.0,5.0,94,0.00,,,0.09,meteohub,2013-05-21 08:02:00,
2013-05-21 03:07:00,64.0,62.2,29.62,East,88,0.0,5.0,94,0.00,,,0.09,meteohub,2013-05-21 08:07:00,
2013-05-21 03:12:00,63.9,61.9,29.62,ESE,108,0.0,6.0,93,0.00,,,0.09,meteohub,2013-05-21 08:12:00,
2013-05-21 03:17:00,63.9,61.9,29.62,NE,49,0.0,6.0,93,0.00,,,0.09,meteohub,2013-05-21 08:17:00,
2013-05-21 03:22:00,63.7,61.7,29.62,NE,49,0.0,5.0,93,0.00,,,0.09,meteohub,2013-05-21 08:22:00,
2013-05-21 03:27:00,63.7,61.7,29.62,ENE,65,0.0,5.0,93,0.00,,,0.09,meteohub,2013-05-21 08:27:00,
2013-05-21 03:32:00,63.5,61.5,29.62,ESE,107,0.0,2.0,93,0.00,,,0.09,meteohub,2013-05-21 08:32:00,
2013-05-21 03:37:00,63.5,61.5,29.62,East,92,0.0,7.0,93,0.00,,,0.09,meteohub,2013-05-21 08:37:00,
2013-05-21 03:42:00,63.3,61.3,29.62,East,92,0.0,7.0,93,0.00,,,0.09,meteohub,2013-05-21 08:42:00,
2013-05-21 03:47:00,63.3,61.3,29.62,East,90,0.0,7.0,93,0.00,,,0.09,meteohub,2013-05-21 08:47:00,
2013-05-21 03:52:00,63.3,61.3,29.62,East,93,0.0,5.0,93,0.00,,,0.09,meteohub,2013-05-21 08:52:00,
2013-05-21 03:57:00,63.3,61.0,29.62,South,184,0.0,5.0,92,0.00,,,0.09,meteohub,2013-05-21 08:57:00,
2013-05-21 04:04:00,63.3,61.0,29.62,ESE,115,0.0,6.0,92,0.00,,,0.09,meteohub,2013-05-21 09:04:00,
2013-05-21 04:09:00,63.3,61.0,29.62,East,97,0.0,6.0,92,0.00,,,0.09,meteohub,2013-05-21 09:09:00,
2013-05-21 04:14:00,63.1,60.8,29.62,ESE,120,0.0,6.0,92,0.00,,,0.09,meteohub,2013-05-21 09:14:00,
2013-05-21 04:19:00,63.1,60.8,29.62,ESE,105,0.0,6.0,92,0.00,,,0.09,meteohub,2013-05-21 09:19:00,
2013-05-21 04:24:00,63.1,60.8,29.62,East,83,0.0,5.0,92,0.00,,,0.09,meteohub,2013-05-21 09:24:00,
2013-05-21 04:29:00,63.1,60.4,29.63,East,94,0.0,5.0,91,0.00,,,0.09,meteohub,2013-05-21 09:29:00,
2013-05-21 04:34:00,63.3,60.6,29.62,ENE,70,1.0,5.0,91,0.00,,,0.09,meteohub,2013-05-21 09:34:00,
2013-05-21 04:39:00,63.1,60.4,29.63,SSE,167,0.0,4.0,91,0.00,,,0.09,meteohub,2013-05-21 09:39:00,
2013-05-21 04:44:00,63.1,60.4,29.63,ENE,73,0.0,5.0,91,0.00,,,0.09,meteohub,2013-05-21 09:44:00,
2013-05-21 04:49:00,63.0,60.3,29.63,ENE,65,0.0,5.0,91,0.00,,,0.09,meteohub,2013-05-21 09:49:00,
2013-05-21 04:54:00,63.0,60.3,29.63,SE,145,0.0,7.0,91,0.00,,,0.09,meteohub,2013-05-21 09:54:00,
2013-05-21 04:59:00,63.0,60.3,29.63,SE,140,1.0,7.0,91,0.00,,,0.09,meteohub,2013-05-21 09:59:00,
2013-05-21 05:04:00,63.0,60.3,29.64,ESE,103,1.0,7.0,91,0.00,,,0.09,meteohub,2013-05-21 10:04:00,
2013-05-21 05:09:00,63.0,60.3,29.64,SSE,165,4.0,7.0,91,0.00,,,0.09,meteohub,2013-05-21 10:09:00,
2013-05-21 05:14:00,62.8,60.1,29.64,SSW,192,0.0,7.0,91,0.00,,,0.09,meteohub,2013-05-21 10:14:00,
2013-05-21 05:20:00,62.8,60.1,29.64,WNW,298,0.0,8.0,91,0.00,,,0.09,meteohub,2013-05-21 10:20:00,
2013-05-21 05:25:00,62.8,60.1,29.64,NNE,13,0.0,8.0,91,0.00,,,0.09,meteohub,2013-05-21 10:25:00,
2013-05-21 05:30:00,62.6,59.9,29.64,SSE,155,0.0,8.0,91,0.00,,,0.09,meteohub,2013-05-21 10:30:00,
2013-05-21 05:35:00,62.4,59.7,29.65,West,273,0.0,9.0,91,0.00,,,0.09,meteohub,2013-05-21 10:35:00,
2013-05-21 05:40:00,62.4,59.7,29.65,South,175,0.0,9.0,91,0.00,,,0.09,meteohub,2013-05-21 10:40:00,
2013-05-21 05:45:00,62.4,59.7,29.65,SW,230,0.0,9.0,91,0.00,,,0.09,meteohub,2013-05-21 10:45:00,
2013-05-21 05:50:00,62.4,59.7,29.65,ESE,117,0.0,8.0,91,0.00,,,0.09,meteohub,2013-05-21 10:50:00,
2013-05-21 05:55:00,62.4,59.7,29.65,SE,140,1.0,9.0,91,0.00,,,0.09,meteohub,2013-05-21 10:55:00,
2013-05-21 06:00:00,62.2,59.5,29.66,East,80,0.0,9.0,91,0.00,,,0.09,meteohub,2013-05-21 11:00:00,
2013-05-21 06:05:00,62.2,59.9,29.66,SSE,165,0.0,7.0,92,0.00,,,0.09,meteohub,2013-05-21 11:05:00,
2013-05-21 06:10:00,62.2,59.9,29.66,SSW,211,0.0,10.0,92,0.00,,,0.09,meteohub,2013-05-21 11:10:00,
2013-05-21 06:15:00,62.4,59.7,29.65,ESE,115,1.0,10.0,91,0.00,,,0.09,meteohub,2013-05-21 11:15:00,
2013-05-21 06:20:00,62.4,59.7,29.65,SSE,151,2.0,10.0,91,0.00,,,0.09,meteohub,2013-05-21 11:20:00,
2013-05-21 06:25:00,62.4,59.7,29.65,WNW,286,0.0,7.0,91,0.00,,,0.09,meteohub,2013-05-21 11:25:00,
2013-05-21 06:30:00,62.8,60.1,29.65,SE,144,5.0,9.0,91,0.00,,,0.09,meteohub,2013-05-21 11:30:00,
2013-05-21 06:35:00,62.8,60.1,29.66,NE,46,0.0,9.0,91,0.00,,,0.09,meteohub,2013-05-21 11:35:00,
2013-05-21 06:40:00,63.0,60.3,29.66,WSW,254,2.0,9.0,91,0.00,,,0.09,meteohub,2013-05-21 11:40:00,
2013-05-21 06:45:00,63.0,60.3,29.66,SW,226,0.0,8.0,91,0.00,,,0.09,meteohub,2013-05-21 11:45:00,
2013-05-21 06:51:00,63.1,60.4,29.66,SSE,159,6.0,8.0,91,0.00,,,0.09,meteohub,2013-05-21 11:51:00,
2013-05-21 06:56:00,63.1,60.4,29.66,SSE,159,0.0,7.0,91,0.00,,,0.09,meteohub,2013-05-21 11:56:00,
2013-05-21 07:01:00,63.3,60.6,29.66,South,190,1.0,7.0,91,0.00,,,0.09,meteohub,2013-05-21 12:01:00,
2013-05-21 07:06:00,63.5,60.8,29.66,WSW,254,0.0,7.0,91,0.00,,,0.09,meteohub,2013-05-21 12:06:00,
2013-05-21 07:11:00,63.7,60.6,29.67,West,268,0.0,7.0,90,0.00,,,0.09,meteohub,2013-05-21 12:11:00,
2013-05-21 07:16:00,63.9,60.8,29.67,WNW,291,0.0,7.0,90,0.00,,,0.09,meteohub,2013-05-21 12:16:00,
2013-05-21 07:21:00,64.0,61.0,29.67,SSW,202,1.0,9.0,90,0.00,,,0.09,meteohub,2013-05-21 12:21:00,
2013-05-21 07:26:00,64.2,61.2,29.67,SSW,202,3.0,9.0,90,0.00,,,0.09,meteohub,2013-05-21 12:26:00,
2013-05-21 07:31:00,64.2,61.0,29.67,SSW,212,0.0,9.0,89,0.00,,,0.09,meteohub,2013-05-21 12:31:00,
2013-05-21 07:36:00,64.2,61.0,29.66,SSE,161,0.0,13.0,89,0.00,,,0.09,meteohub,2013-05-21 12:36:00,
2013-05-21 07:41:00,64.2,61.0,29.66,East,80,3.0,13.0,89,0.00,,,0.09,meteohub,2013-05-21 12:41:00,
2013-05-21 07:46:00,64.4,61.2,29.66,WNW,294,5.0,13.0,89,0.00,,,0.09,meteohub,2013-05-21 12:46:00,
2013-05-21 07:51:00,64.6,61.0,29.67,WSW,248,0.0,11.0,88,0.00,,,0.09,meteohub,2013-05-21 12:51:00,
2013-05-21 07:56:00,64.6,61.3,29.67,SSW,200,8.0,11.0,89,0.00,,,0.09,meteohub,2013-05-21 12:56:00,
2013-05-21 08:01:00,64.8,61.2,29.66,WSW,251,0.0,11.0,88,0.00,,,0.09,meteohub,2013-05-21 13:01:00,
2013-05-21 08:06:00,64.8,61.2,29.67,SW,229,1.0,9.0,88,0.00,,,0.09,meteohub,2013-05-21 13:06:00,
2013-05-21 08:11:00,64.8,61.2,29.67,WSW,255,0.0,10.0,88,0.00,,,0.09,meteohub,2013-05-21 13:11:00,
2013-05-21 08:16:00,64.9,61.3,29.67,SE,126,1.0,10.0,88,0.00,,,0.09,meteohub,2013-05-21 13:16:00,
2013-05-21 08:22:00,65.1,61.9,29.67,SSW,211,0.0,10.0,89,0.00,,,0.09,meteohub,2013-05-21 13:22:00,
2013-05-21 08:27:00,65.3,62.1,29.67,SSW,208,3.0,7.0,89,0.00,,,0.09,meteohub,2013-05-21 13:27:00,
2013-05-21 08:32:00,65.3,61.7,29.68,South,169,0.0,10.0,88,0.00,,,0.09,meteohub,2013-05-21 13:32:00,
2013-05-21 08:37:00,65.5,61.5,29.67,West,270,0.0,10.0,87,0.00,,,0.09,meteohub,2013-05-21 13:37:00,
2013-05-21 08:42:00,65.7,61.7,29.68,South,180,0.0,10.0,87,0.00,,,0.09,meteohub,2013-05-21 13:42:00,
2013-05-21 08:47:00,65.8,61.9,29.67,West,268,4.0,8.0,87,0.00,,,0.09,meteohub,2013-05-21 13:47:00,
2013-05-21 08:52:00,66.0,62.1,29.67,NW,306,0.0,8.0,87,0.00,,,0.09,meteohub,2013-05-21 13:52:00,
2013-05-21 08:57:00,66.4,62.4,29.68,NNW,333,0.0,7.0,87,0.00,,,0.09,meteohub,2013-05-21 13:57:00,
2013-05-21 09:02:00,66.6,62.6,29.68,SSE,162,2.0,6.0,87,0.00,,,0.09,meteohub,2013-05-21 14:02:00,
2013-05-21 09:07:00,66.7,62.4,29.68,SE,137,0.0,8.0,86,0.00,,,0.09,meteohub,2013-05-21 14:07:00,
2013-05-21 09:12:00,66.7,62.1,29.68,SSW,202,0.0,8.0,85,0.00,,,0.09,meteohub,2013-05-21 14:12:00,
2013-05-21 09:17:00,66.7,62.4,29.68,WSW,250,2.0,7.0,86,0.00,,,0.09,meteohub,2013-05-21 14:17:00,
2013-05-21 09:22:00,66.7,62.1,29.68,East,88,0.0,9.0,85,0.00,,,0.09,meteohub,2013-05-21 14:22:00,
2013-05-21 09:27:00,66.9,62.6,29.68,ENE,77,0.0,9.0,86,0.00,,,0.09,meteohub,2013-05-21 14:27:00,
2013-05-21 09:32:00,67.1,62.8,29.68,East,84,2.0,9.0,86,0.00,,,0.09,meteohub,2013-05-21 14:32:00,
2013-05-21 09:37:00,67.3,63.0,29.68,ENE,57,0.0,5.0,86,0.00,,,0.09,meteohub,2013-05-21 14:37:00,
2013-05-21 09:42:00,67.5,63.1,29.68,NNE,13,0.0,5.0,86,0.00,,,0.09,meteohub,2013-05-21 14:42:00,
2013-05-21 09:47:00,67.5,62.8,29.68,SE,134,1.0,5.0,85,0.00,,,0.09,meteohub,2013-05-21 14:47:00,
2013-05-21 09:52:00,67.3,62.6,29.68,SW,232,0.0,7.0,85,0.00,,,0.09,meteohub,2013-05-21 14:52:00,
2013-05-21 09:57:00,67.3,62.6,29.68,East,89,0.0,7.0,85,0.00,,,0.09,meteohub,2013-05-21 14:57:00,
2013-05-21 10:02:00,67.5,62.8,29.67,NE,53,0.0,7.0,85,0.00,,,0.09,meteohub,2013-05-21 15:02:00,
2013-05-21 10:07:00,67.5,62.8,29.67,NNE,27,0.0,7.0,85,0.00,,,0.09,meteohub,2013-05-21 15:07:00,
2013-05-21 10:12:00,67.5,62.4,29.68,ESE,117,0.0,5.0,84,0.00,,,0.09,meteohub,2013-05-21 15:12:00,
2013-05-21 10:17:00,67.6,62.6,29.68,ENE,71,2.0,5.0,84,0.00,,,0.09,meteohub,2013-05-21 15:17:00,
2013-05-21 10:22:00,67.6,62.6,29.68,WSW,244,0.0,5.0,84,0.00,,,0.09,meteohub,2013-05-21 15:22:00,
2013-05-21 10:27:00,68.2,63.5,29.68,SSE,168,1.0,8.0,85,0.00,,,0.09,meteohub,2013-05-21 15:27:00,
2013-05-21 10:32:00,68.4,63.0,29.68,SE,132,0.0,8.0,83,0.00,,,0.09,meteohub,2013-05-21 15:32:00,
2013-05-21 10:37:00,68.7,63.0,29.68,NNW,336,0.0,8.0,82,0.00,,,0.09,meteohub,2013-05-21 15:37:00,
2013-05-21 10:42:00,69.3,63.5,29.67,South,183,2.0,7.0,82,0.00,,,0.09,meteohub,2013-05-21 15:42:00,
2013-05-21 10:47:00,69.3,63.1,29.68,SSW,206,0.0,12.0,81,0.00,,,0.09,meteohub,2013-05-21 15:47:00,
2013-05-21 10:52:00,69.6,63.9,29.68,WSW,238,1.0,12.0,82,0.00,,,0.09,meteohub,2013-05-21 15:52:00,
2013-05-21 10:57:00,70.3,63.9,29.67,SE,143,0.0,10.0,80,0.00,,,0.09,meteohub,2013-05-21 15:57:00,
2013-05-21 11:02:00,70.3,63.5,29.68,West,274,0.0,10.0,79,0.00,,,0.09,meteohub,2013-05-21 16:02:00,
2013-05-21 11:07:00,70.2,63.3,29.67,ESE,122,0.0,7.0,79,0.00,,,0.09,meteohub,2013-05-21 16:07:00,
2013-05-21 11:13:00,70.5,64.0,29.67,NNE,26,0.0,7.0,80,0.00,,,0.09,meteohub,2013-05-21 16:13:00,
2013-05-21 11:18:00,71.2,64.8,29.66,ENE,76,0.0,8.0,80,0.00,,,0.09,meteohub,2013-05-21 16:18:00,
2013-05-21 11:23:00,72.1,64.2,29.67,SE,142,1.0,8.0,76,0.00,,,0.09,meteohub,2013-05-21 16:23:00,
2013-05-21 11:28:00,73.0,65.5,29.66,East,87,1.0,8.0,77,0.00,,,0.09,meteohub,2013-05-21 16:28:00,
2013-05-21 11:33:00,73.8,65.3,29.66,East,91,1.0,7.0,75,0.00,,,0.09,meteohub,2013-05-21 16:33:00,
2013-05-21 11:38:00,73.9,64.4,29.66,SSE,153,1.0,7.0,72,0.00,,,0.09,meteohub,2013-05-21 16:38:00,
2013-05-21 11:43:00,74.5,65.7,29.65,NNE,20,0.0,9.0,74,0.00,,,0.09,meteohub,2013-05-21 16:43:00,
2013-05-21 11:48:00,74.5,65.7,29.65,East,81,1.0,9.0,74,0.00,,,0.09,meteohub,2013-05-21 16:48:00,
2013-05-21 11:53:00,75.0,65.8,29.65,North,5,0.0,11.0,73,0.00,,,0.09,meteohub,2013-05-21 16:53:00,
2013-05-21 11:58:00,75.6,65.5,29.64,SE,129,1.0,11.0,71,0.00,,,0.09,meteohub,2013-05-21 16:58:00,
2013-05-21 12:03:00,75.7,64.8,29.64,SE,141,0.0,11.0,69,0.00,,,0.09,meteohub,2013-05-21 17:03:00,
2013-05-21 12:08:00,75.7,65.3,29.64,SE,139,1.0,8.0,70,0.00,,,0.09,meteohub,2013-05-21 17:08:00,
2013-05-21 12:13:00,76.5,66.0,29.64,ENE,65,0.0,8.0,70,0.00,,,0.09,meteohub,2013-05-21 17:13:00,
2013-05-21 12:18:00,76.8,66.2,29.64,NW,312,1.0,8.0,70,0.00,,,0.09,meteohub,2013-05-21 17:18:00,
2013-05-21 12:23:00,77.2,65.8,29.63,South,186,0.0,7.0,68,0.00,,,0.09,meteohub,2013-05-21 17:23:00,
2013-05-21 12:28:00,77.4,64.8,29.63,South,173,2.0,9.0,65,0.00,,,0.09,meteohub,2013-05-21 17:28:00,
2013-05-21 12:34:00,77.5,66.6,29.63,East,86,5.0,9.0,69,0.00,,,0.09,meteohub,2013-05-21 17:34:00,
2013-05-21 12:39:00,77.7,65.8,29.63,South,182,0.0,9.0,67,0.00,,,0.09,meteohub,2013-05-21 17:39:00,
2013-05-21 12:44:00,77.7,65.8,29.63,SE,141,0.0,7.0,67,0.00,,,0.09,meteohub,2013-05-21 17:44:00,
2013-05-21 12:49:00,78.1,65.8,29.62,North,5,0.0,7.0,66,0.00,,,0.09,meteohub,2013-05-21 17:49:00,
2013-05-21 12:54:00,78.4,65.7,29.62,South,184,1.0,6.0,65,0.00,,,0.09,meteohub,2013-05-21 17:54:00,
2013-05-21 12:59:00,78.6,65.5,29.62,ESE,105,0.0,9.0,64,0.00,,,0.09,meteohub,2013-05-21 17:59:00,
2013-05-21 13:04:00,79.0,64.4,29.62,SSW,208,0.0,13.0,61,0.00,,,0.09,meteohub,2013-05-21 18:04:00,
2013-05-21 13:09:00,79.0,65.3,29.62,NNW,345,4.0,13.0,63,0.00,,,0.09,meteohub,2013-05-21 18:09:00,
2013-05-21 13:14:00,79.0,64.4,29.62,South,188,1.0,10.0,61,0.00,,,0.09,meteohub,2013-05-21 18:14:00,
2013-05-21 13:19:00,79.2,64.9,29.62,SE,127,4.0,10.0,62,0.00,,,0.09,meteohub,2013-05-21 18:19:00,
2013-05-21 13:24:00,79.2,63.7,29.62,SSW,207,7.0,10.0,59,0.00,,,0.09,meteohub,2013-05-21 18:24:00,
2013-05-21 13:29:00,79.0,63.9,29.63,SE,126,1.0,11.0,60,0.00,,,0.09,meteohub,2013-05-21 18:29:00,
2013-05-21 13:34:00,78.8,63.7,29.63,South,176,1.0,11.0,60,0.00,,,0.09,meteohub,2013-05-21 18:34:00,
2013-05-21 13:39:00,78.4,63.0,29.63,SE,135,0.0,10.0,59,0.00,,,0.09,meteohub,2013-05-21 18:39:00,
2013-05-21 13:44:00,78.6,63.1,29.63,NE,51,0.0,16.0,59,0.00,,,0.09,meteohub,2013-05-21 18:44:00,
2013-05-21 13:49:00,78.4,62.4,29.63,WSW,253,1.0,16.0,58,0.00,,,0.09,meteohub,2013-05-21 18:49:00,
2013-05-21 13:54:00,78.6,62.6,29.63,WSW,240,9.0,16.0,58,0.00,,,0.09,meteohub,2013-05-21 18:54:00,
2013-05-21 13:59:00,79.5,61.9,29.63,SSW,207,9.0,13.0,55,0.00,,,0.09,meteohub,2013-05-21 18:59:00,
2013-05-21 14:05:00,79.5,60.4,29.63,SE,137,3.0,18.0,52,0.00,,,0.09,meteohub,2013-05-21 19:05:00,
2013-05-21 14:10:00,79.0,61.9,29.63,SW,219,8.0,19.0,56,0.00,,,0.09,meteohub,2013-05-21 19:10:00,
2013-05-21 14:15:00,78.6,61.2,29.63,ESE,122,1.0,19.0,55,0.00,,,0.09,meteohub,2013-05-21 19:15:00,
2013-05-21 14:20:00,78.3,60.3,29.63,NW,318,4.0,19.0,54,0.00,,,0.09,meteohub,2013-05-21 19:20:00,
2013-05-21 14:25:00,78.8,60.8,29.63,SSW,193,6.0,14.0,54,0.00,,,0.09,meteohub,2013-05-21 19:25:00,
2013-05-21 14:30:00,79.0,61.0,29.63,NNE,22,5.0,15.0,54,0.00,,,0.09,meteohub,2013-05-21 19:30:00,
2013-05-21 14:35:00,78.3,60.8,29.63,South,177,5.0,15.0,55,0.00,,,0.09,meteohub,2013-05-21 19:35:00,
2013-05-21 14:40:00,77.5,59.0,29.63,WNW,283,6.0,14.0,53,0.00,,,0.09,meteohub,2013-05-21 19:40:00,
2013-05-21 14:45:00,78.1,60.6,29.63,West,265,6.0,14.0,55,0.00,,,0.09,meteohub,2013-05-21 19:45:00,
2013-05-21 14:50:00,78.4,59.4,29.63,WNW,283,13.0,14.0,52,0.00,,,0.09,meteohub,2013-05-21 19:50:00,
2013-05-21 14:55:00,78.1,59.0,29.63,WSW,256,2.0,23.0,52,0.00,,,0.09,meteohub,2013-05-21 19:55:00,
2013-05-21 15:00:00,77.9,59.9,29.63,SSE,147,3.0,23.0,54,0.00,,,0.09,meteohub,2013-05-21 20:00:00,
2013-05-21 15:05:00,78.8,60.3,29.64,SSE,153,5.0,23.0,53,0.00,,,0.09,meteohub,2013-05-21 20:05:00,
2013-05-21 15:11:00,79.3,60.8,29.64,North,0,2.0,19.0,53,0.00,,,0.09,meteohub,2013-05-21 20:11:00,
2013-05-21 15:16:00,79.7,61.0,29.64,SW,234,2.0,19.0,53,0.00,,,0.09,meteohub,2013-05-21 20:16:00,
2013-05-21 15:21:00,79.9,59.0,29.63,WNW,283,6.0,18.0,49,0.00,,,0.09,meteohub,2013-05-21 20:21:00,
2013-05-21 15:26:00,80.1,60.3,29.63,SSW,206,5.0,18.0,51,0.00,,,0.09,meteohub,2013-05-21 20:26:00,
2013-05-21 15:31:00,80.4,60.6,29.63,ESE,113,0.0,15.0,51,0.00,,,0.09,meteohub,2013-05-21 20:31:00,
2013-05-21 15:36:00,79.9,59.5,29.63,SSW,198,1.0,15.0,50,0.00,,,0.09,meteohub,2013-05-21 20:36:00,
2013-05-21 15:41:00,78.3,59.2,29.63,SW,225,3.0,15.0,52,0.00,,,0.09,meteohub,2013-05-21 20:41:00,
2013-05-21 15:46:00,77.5,59.0,29.63,SW,229,0.0,15.0,53,0.00,,,0.09,meteohub,2013-05-21 20:46:00,
2013-05-21 15:51:00,77.4,59.4,29.63,SW,227,0.0,15.0,54,0.00,,,0.09,meteohub,2013-05-21 20:51:00,
2013-05-21 15:56:00,78.3,60.3,29.63,SW,231,0.0,15.0,54,0.00,,,0.09,meteohub,2013-05-21 20:56:00,
2013-05-21 16:01:00,78.8,60.3,29.63,WNW,284,2.0,15.0,53,0.00,,,0.09,meteohub,2013-05-21 21:01:00,
2013-05-21 16:06:00,79.2,59.5,29.63,WSW,251,4.0,13.0,51,0.00,,,0.09,meteohub,2013-05-21 21:06:00,
2013-05-21 16:11:00,79.0,59.9,29.63,West,263,5.0,12.0,52,0.00,,,0.09,meteohub,2013-05-21 21:11:00,
2013-05-21 16:17:00,78.1,59.5,29.63,West,277,3.0,13.0,53,0.00,,,0.09,meteohub,2013-05-21 21:17:00,
2013-05-21 16:22:00,78.1,57.9,29.64,WNW,301,9.0,16.0,50,0.00,,,0.09,meteohub,2013-05-21 21:22:00,
2013-05-21 16:27:00,78.4,58.3,29.64,West,275,3.0,16.0,50,0.00,,,0.09,meteohub,2013-05-21 21:27:00,
2013-05-21 16:32:00,78.6,59.0,29.63,South,187,0.0,15.0,51,0.00,,,0.09,meteohub,2013-05-21 21:32:00,
2013-05-21 16:37:00,79.0,58.8,29.64,South,182,2.0,16.0,50,0.00,,,0.09,meteohub,2013-05-21 21:37:00,
2013-05-21 16:42:00,79.0,58.1,29.64,SW,226,10.0,16.0,49,0.00,,,0.09,meteohub,2013-05-21 21:42:00,
2013-05-21 16:47:00,79.0,58.8,29.64,West,263,7.0,16.0,50,0.00,,,0.09,meteohub,2013-05-21 21:47:00,
2013-05-21 16:52:00,78.4,58.3,29.64,West,265,4.0,15.0,50,0.00,,,0.09,meteohub,2013-05-21 21:52:00,
2013-05-21 16:57:00,78.8,58.6,29.64,SW,236,6.0,15.0,50,0.00,,,0.09,meteohub,2013-05-21 21:57:00,
2013-05-21 17:02:00,79.0,59.4,29.64,West,273,0.0,15.0,51,0.00,,,0.09,meteohub,2013-05-21 22:02:00,
2013-05-21 17:07:00,79.2,59.0,29.64,NW,312,0.0,15.0,50,0.00,,,0.09,meteohub,2013-05-21 22:07:00,
2013-05-21 17:12:00,79.0,58.8,29.64,South,174,3.0,16.0,50,0.00,,,0.09,meteohub,2013-05-21 22:12:00,
2013-05-21 17:17:00,79.0,58.1,29.64,West,269,9.0,16.0,49,0.00,,,0.09,meteohub,2013-05-21 22:17:00,
2013-05-21 17:22:00,78.6,58.5,29.64,WSW,238,2.0,16.0,50,0.00,,,0.09,meteohub,2013-05-21 22:22:00,
2013-05-21 17:27:00,78.4,57.2,29.65,West,274,5.0,12.0,48,0.00,,,0.09,meteohub,2013-05-21 22:27:00,
2013-05-21 17:32:00,78.3,58.1,29.65,South,169,5.0,12.0,50,0.00,,,0.09,meteohub,2013-05-21 22:32:00,
2013-05-21 17:37:00,78.3,58.1,29.64,SW,217,5.0,12.0,50,0.00,,,0.09,meteohub,2013-05-21 22:37:00,
2013-05-21 17:42:00,78.3,57.0,29.64,South,180,7.0,14.0,48,0.00,,,0.09,meteohub,2013-05-21 22:42:00,
2013-05-21 17:47:00,78.3,57.6,29.64,West,260,6.0,14.0,49,0.00,,,0.09,meteohub,2013-05-21 22:47:00,
2013-05-21 17:52:00,78.1,56.8,29.64,SW,219,4.0,14.0,48,0.00,,,0.09,meteohub,2013-05-21 22:52:00,
2013-05-21 17:57:00,77.9,57.2,29.63,WSW,254,12.0,14.0,49,0.00,,,0.09,meteohub,2013-05-21 22:57:00,
2013-05-21 18:02:00,77.9,57.2,29.63,West,281,4.0,14.0,49,0.00,,,0.09,meteohub,2013-05-21 23:02:00,
2013-05-21 18:07:00,78.3,57.0,29.63,West,277,6.0,12.0,48,0.00,,,0.09,meteohub,2013-05-21 23:07:00,
2013-05-21 18:12:00,78.3,57.6,29.63,WSW,242,4.0,13.0,49,0.00,,,0.09,meteohub,2013-05-21 23:12:00,
2013-05-21 18:17:00,78.3,57.0,29.63,West,267,4.0,13.0,48,0.00,,,0.09,meteohub,2013-05-21 23:17:00,
2013-05-21 18:22:00,77.7,56.5,29.63,WNW,284,7.0,13.0,48,0.00,,,0.09,meteohub,2013-05-21 23:22:00,
2013-05-21 18:27:00,77.5,56.8,29.63,SW,216,3.0,14.0,49,0.00,,,0.09,meteohub,2013-05-21 23:27:00,
2013-05-21 18:32:00,77.5,57.9,29.63,SW,215,0.0,14.0,51,0.00,,,0.09,meteohub,2013-05-21 23:32:00,
2013-05-21 18:37:00,77.5,56.3,29.63,SW,221,0.0,14.0,48,0.00,,,0.09,meteohub,2013-05-21 23:37:00,
2013-05-21 18:42:00,77.2,57.0,29.63,West,270,6.0,11.0,50,0.00,,,0.09,meteohub,2013-05-21 23:42:00,
2013-05-21 18:47:00,77.4,56.1,29.63,West,259,2.0,10.0,48,0.00,,,0.09,meteohub,2013-05-21 23:47:00,
2013-05-21 18:52:00,76.8,56.3,29.64,WNW,287,5.0,15.0,49,0.00,,,0.09,meteohub,2013-05-21 23:52:00,
2013-05-21 18:57:00,76.5,57.0,29.64,West,270,6.0,15.0,51,0.00,,,0.09,meteohub,2013-05-21 23:57:00,
2013-05-21 19:02:00,76.1,56.1,29.65,WSW,250,4.0,15.0,50,0.00,,,0.09,meteohub,2013-05-22 00:02:00,
2013-05-21 19:07:00,75.9,56.5,29.65,WSW,244,0.0,11.0,51,0.00,,,0.00,meteohub,2013-05-22 00:07:00,
2013-05-21 19:12:00,75.6,56.1,29.65,SW,220,0.0,10.0,51,0.00,,,0.00,meteohub,2013-05-22 00:12:00,
2013-05-21 19:17:00,75.6,57.2,29.64,SW,234,0.0,10.0,53,0.00,,,0.00,meteohub,2013-05-22 00:17:00,
2013-05-21 19:22:00,75.4,57.0,29.65,West,259,0.0,7.0,53,0.00,,,0.00,meteohub,2013-05-22 00:22:00,
2013-05-21 19:27:00,75.4,57.0,29.65,SSW,200,0.0,6.0,53,0.00,,,0.00,meteohub,2013-05-22 00:27:00,
2013-05-21 19:32:00,75.2,56.3,29.65,South,176,2.0,7.0,52,0.00,,,0.00,meteohub,2013-05-22 00:32:00,
2013-05-21 19:37:00,75.0,56.7,29.65,SSW,196,2.0,7.0,53,0.00,,,0.00,meteohub,2013-05-22 00:37:00,
2013-05-21 19:42:00,74.8,56.5,29.65,WSW,251,0.0,6.0,53,0.00,,,0.00,meteohub,2013-05-22 00:42:00,
2013-05-21 19:47:00,74.7,56.5,29.66,WSW,248,0.0,6.0,53,0.00,,,0.00,meteohub,2013-05-22 00:47:00,
2013-05-21 19:52:00,74.5,56.3,29.66,SW,218,0.0,6.0,53,0.00,,,0.00,meteohub,2013-05-22 00:52:00,
2013-05-21 19:57:00,74.1,56.5,29.66,SW,215,1.0,5.0,54,0.00,,,0.00,meteohub,2013-05-22 00:57:00,
2013-05-21 20:02:00,73.9,56.8,29.66,SW,235,0.0,5.0,55,0.00,,,0.00,meteohub,2013-05-22 01:02:00,
2013-05-21 20:07:00,73.6,56.8,29.67,SW,236,1.0,4.0,56,0.00,,,0.00,meteohub,2013-05-22 01:07:00,
2013-05-21 20:12:00,73.2,56.7,29.67,West,272,1.0,4.0,56,0.00,,,0.00,meteohub,2013-05-22 01:12:00,
2013-05-21 20:17:00,73.2,57.0,29.67,West,267,0.0,3.0,57,0.00,,,0.00,meteohub,2013-05-22 01:17:00,
2013-05-21 20:22:00,73.0,56.8,29.67,West,259,0.0,3.0,57,0.00,,,0.00,meteohub,2013-05-22 01:22:00,
2013-05-21 20:27:00,73.0,56.8,29.68,West,259,0.0,2.0,57,0.00,,,0.00,meteohub,2013-05-22 01:27:00,
2013-05-21 20:32:00,72.9,57.7,29.68,West,259,0.0,2.0,59,0.00,,,0.00,meteohub,2013-05-22 01:32:00,
2013-05-21 20:37:00,72.7,57.0,29.68,West,259,0.0,1.0,58,0.00,,,0.00,meteohub,2013-05-22 01:37:00,
2013-05-21 20:42:00,72.3,57.2,29.68,West,259,0.0,0.0,59,0.00,,,0.00,meteohub,2013-05-22 01:42:00,
2013-05-21 20:47:00,72.1,57.0,29.68,West,259,0.0,0.0,59,0.00,,,0.00,meteohub,2013-05-22 01:47:00,
2013-05-21 20:52:00,72.0,56.8,29.68,West,259,0.0,0.0,59,0.00,,,0.00,meteohub,2013-05-22 01:52:00,
2013-05-21 20:57:00,71.8,57.2,29.68,West,259,0.0,0.0,60,0.00,,,0.00,meteohub,2013-05-22 01:57:00,
2013-05-21 21:02:00,71.8,57.6,29.68,West,259,0.0,0.0,61,0.00,,,0.00,meteohub,2013-05-22 02:02:00,
2013-05-21 21:07:00,71.1,57.4,29.68,West,259,0.0,0.0,62,0.00,,,0.00,meteohub,2013-05-22 02:07:00,
2013-05-21 21:12:00,70.5,58.1,29.68,West,259,0.0,0.0,65,0.00,,,0.00,meteohub,2013-05-22 02:12:00,
2013-05-21 21:17:00,70.3,59.4,29.68,West,259,0.0,0.0,68,0.00,,,0.00,meteohub,2013-05-22 02:17:00,
2013-05-21 21:22:00,70.0,58.5,29.68,West,259,0.0,0.0,67,0.00,,,0.00,meteohub,2013-05-22 02:22:00,
2013-05-21 21:27:00,69.6,58.6,29.69,West,259,0.0,0.0,68,0.00,,,0.00,meteohub,2013-05-22 02:27:00,
2013-05-21 21:32:00,69.3,58.6,29.68,West,259,0.0,0.0,69,0.00,,,0.00,meteohub,2013-05-22 02:32:00,
2013-05-21 21:37:00,68.7,58.1,29.69,West,259,0.0,0.0,69,0.00,,,0.00,meteohub,2013-05-22 02:37:00,
2013-05-21 21:42:00,68.2,58.5,29.69,West,259,0.0,0.0,71,0.00,,,0.00,meteohub,2013-05-22 02:42:00,
2013-05-21 21:47:00,67.8,58.1,29.69,West,259,0.0,0.0,71,0.00,,,0.00,meteohub,2013-05-22 02:47:00,
2013-05-21 21:52:00,67.6,58.3,29.69,West,259,0.0,0.0,72,0.00,,,0.00,meteohub,2013-05-22 02:52:00,
2013-05-21 21:57:00,67.5,58.8,29.69,West,259,0.0,0.0,74,0.00,,,0.00,meteohub,2013-05-22 02:57:00,
2013-05-21 22:02:00,67.1,58.8,29.69,West,259,0.0,0.0,75,0.00,,,0.00,meteohub,2013-05-22 03:02:00,
2013-05-21 22:07:00,66.9,59.2,29.69,West,259,0.0,0.0,76,0.00,,,0.00,meteohub,2013-05-22 03:07:00,
2013-05-21 22:12:00,66.7,59.7,29.69,West,259,0.0,0.0,78,0.00,,,0.00,meteohub,2013-05-22 03:12:00,
2013-05-21 22:17:00,66.4,59.7,29.69,West,259,0.0,0.0,79,0.00,,,0.00,meteohub,2013-05-22 03:17:00,
2013-05-21 22:22:00,65.8,59.9,29.69,West,259,0.0,0.0,81,0.00,,,0.00,meteohub,2013-05-22 03:22:00,
2013-05-21 22:27:00,65.5,59.9,29.68,West,259,0.0,0.0,82,0.00,,,0.00,meteohub,2013-05-22 03:27:00,
2013-05-21 22:32:00,65.1,59.2,29.68,West,259,0.0,0.0,81,0.00,,,0.00,meteohub,2013-05-22 03:32:00,
2013-05-21 22:37:00,64.9,59.4,29.68,West,259,0.0,0.0,82,0.00,,,0.00,meteohub,2013-05-22 03:37:00,
2013-05-21 22:42:00,64.9,59.7,29.67,West,259,0.0,0.0,83,0.00,,,0.00,meteohub,2013-05-22 03:42:00,
2013-05-21 22:47:00,64.8,59.2,29.67,West,259,0.0,0.0,82,0.00,,,0.00,meteohub,2013-05-22 03:47:00,
2013-05-21 22:52:00,64.6,58.6,29.67,West,259,0.0,0.0,81,0.00,,,0.00,meteohub,2013-05-22 03:52:00,
2013-05-21 22:57:00,64.2,58.6,29.67,West,259,0.0,0.0,82,0.00,,,0.00,meteohub,2013-05-22 03:57:00,
2013-05-21 23:01:00,64.2,59.0,29.67,West,259,0.0,0.0,83,0.00,,,0.00,meteohub,2013-05-22 04:01:00,
2013-05-21 23:03:00,64.0,59.2,29.67,West,259,0.0,0.0,84,0.00,,,0.00,meteohub,2013-05-22 04:03:00,
2013-05-21 23:04:00,64.0,59.2,29.67,West,259,0.0,0.0,84,0.00,,,0.00,meteohub,2013-05-22 04:04:00,
2013-05-21 23:07:00,64.0,59.2,29.67,West,259,0.0,0.0,84,0.00,,,0.00,meteohub,2013-05-22 04:07:00,
2013-05-21 23:12:00,64.0,59.2,29.67,West,259,0.0,0.0,84,0.00,,,0.00,meteohub,2013-05-22 04:12:00,
2013-05-21 23:17:00,63.9,59.2,29.67,West,259,0.0,0.0,85,0.00,,,0.00,meteohub,2013-05-22 04:17:00,
2013-05-21 23:22:00,63.7,58.8,29.67,West,259,0.0,0.0,84,0.00,,,0.00,meteohub,2013-05-22 04:22:00,
2013-05-21 23:27:00,63.1,58.8,29.67,West,259,0.0,0.0,86,0.00,,,0.00,meteohub,2013-05-22 04:27:00,
2013-05-21 23:32:00,63.0,58.5,29.67,West,259,0.0,0.0,85,0.00,,,0.00,meteohub,2013-05-22 04:32:00,
2013-05-21 23:37:00,63.0,58.1,29.67,West,259,0.0,0.0,84,0.00,,,0.00,meteohub,2013-05-22 04:37:00,
2013-05-21 23:42:00,63.0,58.1,29.67,West,259,0.0,0.0,84,0.00,,,0.00,meteohub,2013-05-22 04:42:00,
2013-05-21 23:47:00,62.8,57.9,29.67,West,259,0.0,0.0,84,0.00,,,0.00,meteohub,2013-05-22 04:47:00,
2013-05-21 23:52:00,62.6,57.7,29.67,West,259,0.0,0.0,84,0.00,,,0.00,meteohub,2013-05-22 04:52:00,
2013-05-21 23:57:00,62.4,57.9,29.67,West,259,0.0,0.0,85,0.00,,,0.00,meteohub,2013-05-22 04:57:00,